Regional Weather Roundup
Issued by NWS

Home | Current Version | Previous Version | Text Only | Print | Product List | Glossary On
Versions: 1 2 3 4 5 6 7 8 9 10 11 12 13 14 15 16 17 18 19 20 21 22 23 24 25 26 27 28 29 30 31 32 33 34 35 36 37 38 39 40 41 42 43 44 45 46 47 48 49 50
000
ASUS44 KBMX 142110
RWRAL

ALABAMA REGIONAL WEATHER ROUNDUP
NATIONAL WEATHER SERVICE BIRMINGHAM AL
300 PM CST SUN FEB 14 2016

NOTE: "FAIR" INDICATES FEW OR NO CLOUDS BELOW 12,000 FEET
WITH NO SIGNIFICANT WEATHER AND/OR OBSTRUCTIONS TO VISIBILITY.

THE REMARK "TC" DENOTES TEMPERATURE IN DEGREES CELSIUS.

ALZ001>011-014-016>018-020-142200-
NORTH ALABAMA

CITY           SKY/WX    TMP DP  RH WIND       PRES   REMARKS
MUSCLE SHOALS  CLOUDY    48  14  25 SE12      30.06F
HUNTSVILLE     CLOUDY    48  10  21 SE12      30.09F
DECATUR        CLOUDY    46  12  25 S13       30.10F
HALEYVILLE     CLOUDY    47  15  27 S14       30.07F
GADSDEN        CLOUDY    50  11  20 S7        30.16F
$$

ALZ012-013-022-023-030>036-040>044-142200-
WEST CENTRAL ALABAMA

CITY           SKY/WX    TMP DP  RH WIND       PRES   REMARKS
TUSCALOOSA     CLOUDY    57  19  22 S9        30.12F
$$

ALZ015-024>027-033>036-040>044-142200-
CENTRAL ALABAMA

CITY           SKY/WX    TMP DP  RH WIND       PRES   REMARKS
BIRMINGHAM     CLOUDY    53  12  19 S6        30.14F
MONTGOMERY     SUNNY     63  18  17 S14       30.16F
SHELBY CO ARPT SUNNY     59  14  17 S13       30.12F
MAXWELL AFB    SUNNY     62  18  18 SE13      30.15F
GREENVILLE     FAIR      61  16  17 S8G17     30.15F
$$

ALZ019-021-028-029-037-038-045>048-142200-
EAST CENTRAL ALABAMA

CITY           SKY/WX    TMP DP  RH WIND       PRES   REMARKS
ANNISTON       MOSUNNY   52  12  20 E8        30.15F
ALEXANDER CITY SUNNY     55  23  28 S7        30.16S
AUBURN         SUNNY     57  16  20 S13       30.18F
$$

ALZ051>064-142200-
SOUTHWEST ALABAMA

CITY           SKY/WX    TMP DP  RH WIND       PRES   REMARKS
MOBILE         MOSUNNY   60  48  64 SE15      30.17F
BROOKLEY FIELD CLOUDY    59  49  69 S10       30.19S
EVERGREEN      SUNNY     62  21  20 S9        30.17F
$$

ALZ049-050-065>069-142200-
SOUTHEAST ALABAMA

CITY           SKY/WX    TMP DP  RH WIND       PRES   REMARKS
DOTHAN         SUNNY     59  18  20 E8        30.23F
OZARK          SUNNY     60  22  23 E8        30.19F
TROY           SUNNY     62  21  20 S12       30.18F
EUFAULA        FAIR      62  20  19 S9        30.19F
$$



USA.gov is the U.S. government's official web portal to all federal, state and local government web resources and services.